Theta_e
308 305 303 299 296 295 294 293 293 294 293 292 291 290 289 288 288 287 287 286 286 286 285 285 284 284 284 283 283 282 282 281 280 283 283 283 283 282 281 281 280 279 278
301 298 295 294 294 293 293 293 293 293 292 290 289 288 288 287 286 286 286 285 285 285 285 284 283 283 282 282 282 282 281 281 279 279 280 280 280 280 279 279 278 278 277
297 294 294 293 292 293 293 293 293 291 290 289 288 287 286 286 285 285 284 284 284 283 283 283 282 281 281 281 281 281 280 279 278 277 277 278 278 278 278 278 277 277 276
295 293 293 292 292 293 293 292 291 290 289 288 287 286 285 285 284 284 283 283 283 282 282 282 281 280 280 279 279 278 278 277 276 276 276 276 276 277 276 276 277 276 276
293 293 292 292 293 292 292 291 291 289 288 287 286 285 284 284 283 283 282 282 282 282 281 281 280 280 279 278 277 277 277 276 275 275 275 275 275 275 274 274 274 275 275
293 292 292 292 292 292 291 290 289 288 287 286 285 284 283 283 282 282 281 281 281 281 281 280 280 279 279 277 277 277 276 275 275 274 274 274 274 274 273 273 273 273 274
292 292 292 292 292 291 290 289 288 287 286 285 284 283 282 282 282 281 281 280 280 280 279 279 279 278 277 276 276 276 275 275 274 273 274 273 273 272 272 273 273 273 273
292 291 291 291 291 290 289 289 287 286 285 284 283 282 282 281 281 280 280 280 279 279 279 278 277 277 276 276 276 276 275 274 273 273 273 273 272 272 271 271 271 272 274
291 291 291 291 290 290 289 287 286 285 284 283 282 281 281 280 280 279 279 279 279 278 278 277 277 276 276 276 276 274 274 273 273 273 272 272 272 272 271 271 272 270 272
291 291 291 290 289 289 288 286 285 285 284 283 281 281 280 280 279 279 278 278 277 277 277 276 276 276 275 275 274 274 273 273 272 272 272 272 272 272 271 271 270 269 269
291 291 290 290 289 288 287 286 285 284 283 282 281 280 279 279 278 278 277 276 276 276 276 276 276 276 275 274 273 273 272 272 272 271 271 271 272 271 270 270 270 269 268
290 290 290 289 288 287 286 285 284 283 282 281 280 279 278 278 277 277 277 276 276 275 275 275 276 274 274 273 272 271 270 270 270 270 270 270 270 270 270 270 269 269 269
290 290 290 289 288 287 286 284 283 282 282 280 279 278 278 277 277 277 276 276 276 275 274 275 275 273 272 272 271 270 270 269 269 269 269 269 269 269 269 269 269 269 270
290 290 289 288 287 286 284 283 282 282 281 279 278 277 277 277 276 276 276 276 275 275 275 274 273 272 272 271 271 270 269 268 267 267 267 267 267 267 267 267 268 268 269
290 289 289 288 286 285 284 283 282 281 280 278 277 277 276 276 276 275 274 274 274 273 273 273 272 272 272 271 270 268 268 267 266 266 265 265 266 266 266 266 266 267 266
289 289 288 287 286 284 283 282 281 280 279 277 276 275 275 275 275 274 274 273 272 272 272 271 271 270 269 268 267 267 266 265 264 264 264 264 264 264 264 265 265 265 265
289 289 288 287 285 284 283 282 281 279 278 276 275 274 274 274 273 273 272 271 272 271 270 270 270 268 267 267 266 265 264 264 264 263 263 263 263 263 263 263 264 264 265
289 288 287 286 285 283 282 281 280 279 278 276 274 274 273 273 273 272 271 271 271 271 270 269 268 267 266 265 265 264 264 264 263 263 263 263 262 262 262 262 263 263 264
288 287 286 286 284 283 281 280 279 278 277 276 275 273 272 272 272 272 271 271 270 270 269 268 267 266 265 265 264 264 263 263 263 263 263 263 262 261 262 262 262 263 263
288 287 286 285 283 281 280 279 278 276 275 274 273 272 272 272 272 272 271 271 270 269 268 268 267 266 265 264 264 263 263 263 263 263 263 263 263 262 262 262 262 263 263
287 286 285 283 281 280 279 278 276 275 273 273 272 271 271 271 271 271 271 270 269 268 267 266 266 265 264 263 263 263 263 263 264 264 264 264 264 263 262 262 262 263 263
286 285 283 281 280 280 278 277 275 273 272 271 271 271 270 270 270 271 270 269 268 267 266 265 265 264 263 263 263 264 264 264 264 264 264 264 264 263 262 262 262 263 263
285 283 282 281 280 279 277 275 274 272 271 271 271 271 270 271 271 270 269 268 267 266 265 265 264 264 263 264 264 264 264 264 265 265 265 265 264 263 263 262 263 263 263
283 282 282 280 278 277 275 274 273 272 271 271 270 270 270 270 270 269 268 267 266 265 265 264 264 264 264 264 264 265 265 265 265 266 266 266 266 265 264 263 263 263 263
283 281 280 278 276 275 274 273 272 271 271 270 270 270 270 269 269 268 267 266 265 265 264 264 264 264 264 264 264 265 265 265 266 266 266 267 267 267 266 265 264 264 263
281 279 277 276 275 274 273 272 271 270 270 270 269 269 269 268 267 267 266 265 264 264 264 264 264 264 264 264 264 265 265 266 266 267 266 266 267 267 267 266 266 265 265
Wind_Speed
10 10 5 4 3 2 1 2 4 6 8 9 9 9 9 10 10 10 11 12 12 13 13 15 15 17 19 22 23 25 28 30 37 45 44 47 49 52 53 52 53 52 51
7 5 6 5 3 1 1 3 5 7 9 9 9 9 10 10 10 10 11 12 12 13 14 15 17 19 21 23 25 28 29 31 36 45 47 49 49 51 52 55 54 53 52
6 6 4 3 2 1 3 5 8 8 9 9 9 9 8 8 9 11 12 13 14 15 16 17 19 21 23 24 26 28 30 31 36 41 48 48 50 51 54 55 55 56 55
7 6 4 3 1 2 4 6 7 8 8 9 9 8 8 8 9 11 12 13 15 16 17 18 21 23 24 25 25 27 30 34 37 39 44 48 49 50 51 57 64 59 61
7 6 4 2 3 4 5 6 8 8 9 9 9 9 9 9 10 12 14 15 16 17 18 19 22 23 22 24 24 26 29 33 36 37 41 45 46 50 51 54 57 62 60
9 6 5 4 5 6 7 8 8 9 9 9 9 9 9 10 11 13 15 17 20 20 20 21 23 23 23 26 25 22 25 32 32 35 39 40 42 45 50 49 48 52 62
9 7 7 7 7 7 7 8 9 10 10 9 9 10 10 12 13 14 16 18 19 20 21 22 24 22 25 26 27 28 35 33 31 34 35 35 42 45 45 49 48 48 54
10 10 8 7 7 8 9 10 10 11 11 11 11 10 12 13 15 16 17 17 19 21 22 23 25 24 27 24 27 36 37 37 37 33 29 36 40 39 35 38 40 45 51
11 9 8 8 8 9 10 10 11 11 12 12 13 13 12 14 16 17 18 19 20 21 23 24 26 24 26 24 31 38 40 40 38 30 36 38 37 35 34 34 39 41 48
11 10 10 9 9 10 11 12 12 14 14 14 14 14 15 15 16 18 19 20 21 23 24 25 27 26 24 27 31 37 41 39 38 44 42 40 37 36 34 33 35 37 40
12 11 10 9 10 12 12 13 14 14 15 16 15 15 15 16 17 18 19 20 22 24 26 28 28 27 26 31 30 36 35 34 41 41 43 41 40 39 37 37 34 32 36
12 11 10 11 12 13 14 15 15 16 16 16 16 16 16 17 18 19 20 22 22 25 27 29 28 24 32 33 36 35 30 34 38 39 40 40 41 41 41 39 38 35 33
11 10 11 12 13 15 16 16 16 17 17 16 16 17 18 19 19 21 23 23 24 26 27 29 28 35 37 38 37 36 35 34 34 36 38 38 38 40 40 40 40 39 36
11 11 12 13 14 15 16 16 16 17 18 18 18 19 19 20 22 23 24 25 26 28 29 32 34 37 38 38 39 37 35 33 32 34 36 37 38 39 39 39 42 43 42
11 11 12 14 14 15 16 17 18 18 19 20 20 21 22 22 22 23 24 25 27 26 28 34 37 39 40 40 39 37 36 34 33 33 35 36 38 39 38 37 37 40 40
11 12 13 14 15 15 17 17 18 20 21 21 21 22 22 23 23 23 23 24 23 26 33 36 37 38 38 37 37 38 36 35 34 34 35 35 37 39 39 37 36 36 39
12 13 14 15 16 18 18 19 19 19 20 21 21 22 23 23 22 23 23 20 26 30 33 35 36 36 36 35 35 36 37 35 34 34 34 34 36 37 37 37 36 36 38
14 15 16 17 18 19 19 20 20 21 21 19 20 21 22 23 23 24 24 27 30 31 35 36 36 35 34 34 34 34 35 34 33 32 32 33 35 36 37 35 34 35 36
17 18 18 19 20 20 20 21 21 22 22 22 22 21 23 23 24 24 25 29 34 35 35 35 34 33 32 32 32 32 31 31 30 32 33 33 34 35 36 34 32 32 33
19 20 21 22 21 20 20 21 21 22 22 22 22 23 23 24 24 25 27 31 34 35 34 34 32 30 29 28 28 28 29 29 31 31 32 34 36 36 36 34 31 31 32
21 22 23 23 21 21 22 21 21 22 22 22 22 21 23 25 26 27 31 32 33 33 32 31 28 26 25 25 25 27 29 30 31 31 33 34 35 36 34 31 30 29 30
23 23 23 22 22 23 22 21 20 21 22 23 22 21 23 25 27 30 32 32 32 30 28 26 25 23 22 23 25 29 31 32 30 31 34 35 37 36 33 31 30 28 29
22 22 22 24 25 23 21 20 20 20 21 22 23 24 24 27 30 31 33 32 31 28 24 22 22 21 19 21 22 25 30 31 28 30 34 38 37 34 31 32 31 29 27
20 21 23 23 21 21 21 20 20 20 22 22 23 25 28 30 31 32 32 31 29 26 21 20 18 18 19 20 21 22 25 27 27 28 31 33 37 36 34 32 29 27 27
19 21 20 20 20 20 21 20 20 21 21 23 26 28 30 31 33 33 32 29 27 25 21 18 16 17 18 21 20 20 23 26 24 27 26 35 40 40 37 33 30 29 27
18 18 18 19 18 19 19 19 20 21 23 25 27 30 32 33 34 34 32 29 27 25 22 20 17 18 19 21 20 20 23 22 24 22 29 33 36 33 36 31 28 25 24
Wind_Direction
163 164 156 144 133 137 260 324 332 333 334 339 343 351 354 358 0 4 3 1 358 355 349 347 343 340 340 338 338 337 336 336 329 325 328 332 333 335 335 335 335 336 334
145 144 155 157 158 177 313 336 339 340 344 347 348 350 351 354 358 360 1 357 352 347 344 341 341 343 339 338 339 338 335 334 332 328 332 335 335 336 334 335 334 334 332
172 170 177 175 182 263 334 344 342 342 342 338 337 340 344 347 350 350 354 353 351 347 346 343 341 340 338 338 337 334 334 333 336 332 329 334 336 338 334 333 332 332 332
190 194 195 200 261 311 331 334 333 332 332 333 332 332 332 334 338 342 346 349 349 347 345 342 341 339 338 337 337 337 335 336 334 332 331 332 334 335 333 333 330 332 330
197 211 216 243 278 300 319 324 325 328 328 323 321 320 321 320 328 340 343 346 345 344 344 342 341 338 338 338 337 339 333 331 331 330 327 329 331 334 333 331 326 327 327
212 218 234 254 277 296 308 313 322 323 318 314 309 303 304 315 331 335 337 342 345 344 342 341 340 339 337 338 337 334 325 327 329 327 324 324 328 326 325 324 320 322 321
217 233 240 252 269 287 304 316 319 314 306 303 295 295 305 311 322 325 332 338 340 337 340 342 340 339 340 339 343 323 328 331 329 325 324 324 318 322 322 321 320 319 316
223 231 240 261 285 301 307 309 307 301 297 290 286 290 299 310 313 317 326 332 334 335 337 342 342 340 340 344 328 322 328 330 329 325 319 310 315 318 313 313 314 315 314
230 241 256 269 282 292 297 300 296 294 291 289 290 290 297 302 308 314 322 328 328 330 338 340 340 338 338 335 322 325 326 327 323 317 315 316 316 318 321 318 323 322 319
237 247 255 268 280 292 296 296 297 295 293 289 287 289 290 300 304 313 318 325 329 328 335 337 339 333 334 329 325 322 322 325 321 317 317 316 318 321 326 328 326 321 318
238 249 260 274 289 294 296 296 296 293 287 284 282 285 293 296 303 311 321 323 324 325 331 334 333 331 328 326 323 321 320 317 313 315 316 319 321 323 327 329 329 323 319
243 253 270 284 289 294 298 296 295 290 286 284 285 288 291 296 303 310 313 316 321 323 329 328 329 325 321 321 320 320 316 314 316 316 319 322 324 324 326 327 329 327 323
249 262 276 285 295 299 298 295 289 289 291 290 288 288 292 299 304 305 308 313 321 324 326 323 321 322 320 320 322 322 321 321 322 322 322 323 323 323 323 326 328 329 324
251 267 281 292 297 296 294 292 294 296 295 290 288 289 293 297 298 301 307 316 319 319 324 321 319 318 319 320 322 326 327 327 326 324 322 323 323 325 326 330 330 331 329
260 273 285 292 293 294 295 297 298 296 294 293 292 292 294 294 297 305 312 314 319 324 308 315 320 322 324 326 327 327 328 329 329 327 325 324 325 325 326 328 331 331 332
263 275 285 290 292 295 296 296 296 297 296 294 293 294 297 300 303 305 307 312 316 308 316 321 322 324 326 328 328 328 330 331 330 328 326 326 326 326 326 327 331 334 333
267 278 285 291 294 294 293 294 295 292 293 294 295 295 299 301 303 306 309 312 309 315 318 322 324 326 329 328 328 330 330 330 329 329 328 328 327 328 327 327 330 334 334
273 280 284 287 291 292 294 296 298 299 298 296 295 297 299 301 305 309 312 310 316 320 323 324 326 328 329 329 330 330 329 332 334 331 330 330 331 330 328 328 329 332 334
274 278 281 286 289 292 296 300 302 302 301 300 298 299 300 303 307 311 312 317 322 324 324 326 327 327 329 330 332 333 335 338 338 335 333 332 333 332 331 329 327 330 334
276 278 283 285 288 293 297 299 300 298 298 300 303 304 303 304 306 309 316 321 321 321 323 322 324 327 330 333 336 336 337 339 339 336 334 333 332 331 332 329 327 328 332
278 280 283 287 292 296 299 300 298 298 300 302 305 305 307 308 314 317 319 320 319 319 321 322 326 329 333 335 335 335 335 336 337 335 334 333 332 332 333 330 327 327 331
279 282 287 291 292 293 294 295 297 300 303 306 308 308 308 309 313 316 319 319 318 319 320 320 324 330 333 333 332 333 333 333 331 329 331 328 327 330 331 332 330 328 330
286 289 291 291 295 296 298 299 302 302 304 306 307 308 308 310 316 318 318 317 316 317 317 318 323 328 331 332 333 334 336 337 332 329 328 329 331 333 332 330 330 327 329
293 293 295 296 297 299 301 302 300 302 304 306 306 307 312 315 317 317 317 315 312 313 313 316 319 324 326 329 331 335 340 344 339 336 334 336 337 337 337 333 331 329 330
297 298 298 301 303 304 303 304 305 306 306 306 309 313 314 315 316 317 316 313 310 309 308 309 310 315 321 326 323 322 326 332 330 332 334 343 343 341 335 332 332 329 324
303 305 307 307 306 305 307 309 307 307 310 312 313 314 316 317 316 316 314 309 305 304 301 304 305 310 316 324 321 318 324 332 338 341 344 339 338 337 336 332 331 329 328